www.pogodaiklimat.ru

Погода и климат >> Архив погоды >> Россия >> Краснодарский край >> Туапсе


АРХИВ ПОГОДЫ в Туапсе

Время (UTC), дата Ветер
(напр.,м/с)
 
Видим.   Явления Облачность Т
(С)
Тd
(С)
f
(%)
Тe
(С)
Тes
(С)
Комфортность P
(гПа)
Po
(гПа)
Тmin
(С)
Tmax
(С)
R
(мм)
R24
(мм)
S
(см)
09 18.04 ЮВ 7-13
{13}
20 км 10/6 1000 м
[Cu Sc Ac trans Ci]
+17.8 +6.4 47 +17 +18 тепло 1009.3 1002.1
12 18.04 ЮВ 5
{14}
20 км 9/4 1000 м
[Cu Sc Ac trans Ci]
+17.1 +6.6 50 +16 +18 тепло 1008.5 1001.2
15 18.04 ЮВ 5
{14}
20 км 9/4 1000 м
[Cu Sc Ac trans Ci]
+17.1 +6.6 50 +16 +17 тепло 1008.5 1001.2
18 18.04 ЮЗ 1 10 км 10/6 1000 м
[Sc Ac trans Ci]
+13.2 +8.2 72 +13 +13 тепло 1010.0 1002.7
21 18.04 З 4
{15}
4000 м слабый ливневой дождь 10/10 600 м
[Cb cap]
+9.7 +7.7 87 +7 +7 по сезону 1013.5 1006.0
00 19.04 ЮЗ 8-12
{12}
10 км в посл. час ливневой дождь 10/10 1000 м
[Cb cap]
+8.9 +6.5 85 +4 +4 прохладно 1015.4 1007.9
03 19.04 ЮЗ 7-13
{15}
20 км 10/8 1000 м
[Cb cap Ci]
+9.1 +3.5 68 +5 +5 прохладно 1016.9 1009.3 +8.5 8
06 19.04 ЮЗ 6-11
{13}
20 км {ливн. осадки} 10/8 600 м
[Cb cap Ac trans Ci fib]
+9.2 +4.0 70 +6 +6 холодно 1019.0 1011.5
09 19.04 ЮЗ 8-15
{18}
20 км в посл. час ливневой дождь 10/8 600 м
[Cb cap Ac trans Ci fib]
+9.8 +4.3 69 +6 +6 холодно 1020.1 1012.6
12 19.04 ЮЗ 7-11
{18}
20 км {ливн. осадки} 10/9 600 м
[Cb cap Ac trans Ci fib]
+9.2 +3.7 68 +5 +5 очень
холодно
1022.4 1014.8
15 19.04 ЮЗ 4-11
{13}
10 км в посл. час ливневой дождь 10/8 600 м
[Cb cap Ac trans Ci fib]
+9.3 +4.2 70 +7 +7 прохладно 1022.7 1015.1 +11.4 0.5
18 19.04 ЮЗ 5-10
{11}
10 км {ливн. осадки} 10/8 1000 м
[Cb cap Ac trans Ci fib]
+9.5 +4.9 73 +6 +6 прохладно 1023.6 1016.0
21 19.04 ЮЗ 3
{11}
10 км 6/3 1000 м
[Sc Ac trans]
+9.1 +5.0 75 +7 +7 по сезону 1023.3 1015.8
00 20.04 С 2 10 км ясно +6.7 +3.9 82 +4 +4 прохладно 1021.3 1013.7
03 20.04 С 2 20 км 3/0
[Ci fib]
+6.7 +1.4 69 +5 +5 холодно 1019.6 1012.0 +5.9
06 20.04 СВ 2 20 км 10/0
[Ci]
+12.4 +2.1 49 +12 +18 по сезону 1018.7 1011.3
09 20.04 ЮЗ 3 20 км 10/0
[Ac lent Cc]
+17.4 +4.4 42 +17 +26 тепло 1017.0 1009.7
12 20.04 ЮЗ 1 20 км 4/0
[Ac lent Ci fib]
+20.2 -3.2 20 +21 +30 комфорт 1014.8 1007.6
15 20.04 ЮВ 1 20 км 3/0
[Ci fib]
+17.5 -5.8 20 +19 +20 тепло 1012.7 1005.5 +21.3
18 20.04 СВ 2 10 км ясно +14.5 -5.1 25 +15 +15 тепло 1012.2 1004.8
21 20.04 СВ 1 10 км ясно +13.3 -5.3 27 +14 +14 тепло 1010.1 1002.8
00 21.04 В 3 10 км 10/6 1000 м
[Cu med, cong Ci]
+18.4 -1.5 26 +19 +19 тепло 1006.6 999.4
03 21.04 ЮВ 5
{17}
20 км {гроза, ливн. осадки} 10/8 1000 м
[Cb cap Ac As]
+14.9 +6.9 59 +14 +14 тепло 1010.0 1002.6 +11.7
06 21.04 ЮЗ 2
{11}
10 км слабый ливневой дождь 10/10 600 м
[Cb cap]
+11.1 +8.9 86 +10 +10 по сезону 1013.5 1006.1 +11.1
09 21.04 ЮЗ 3 10 км в посл. час ливневой дождь 10/10 1000 м
[Cb cap]
+8.8 +6.8 87 +6 +6 холодно 1015.8 1008.3
12 21.04 С 1
{10}
4000 м ливневой дождь 10/10 600 м
[Cb cap]
+7.1 +5.0 86 +6 +6 очень
холодно
1016.9 1009.3
15 21.04 ЮВ 2 10 км слабый ливневой дождь 10/10 600 м
[Cb cap]
+6.7 +4.1 83 +4 +4 очень
холодно
1017.1 1009.6 +15.4 21
18 21.04 ЮЗ 3 10 км в посл. час ливневой дождь 10/10 600 м
[Cb cap]
+7.3 +5.2 87 +4 +4 холодно 1017.7 1010.1
21 21.04 ЮЗ 7-14
{14}
10 км в посл. час ливневой дождь 10/10 600 м
[Cb cap]
+7.2 +5.0 86 +2 +2 холодно 1017.6 1010.0
00 22.04 ЮЗ 13-19
{24}
10 км {ливн. осадки} 10/10 1000 м
[Cb cap]
+8.1 +2.2 66 +3 +3 холодно 1016.7 1009.2
03 22.04 ЮЗ 11-19
{23}
20 км 10/8 1000 м
[Cb cap Ci sp]
+7.7 +2.2 68 +2 +2 очень
холодно
1017.3 1009.7 +6.6 4
06 22.04 ЮЗ 9-14
{21}
20 км в посл. час ливневой дождь 10/8 1000 м
[Cb cap Ci]
+7.2 +3.5 77 +2 +2 очень
холодно
1020.2 1012.6 +6.1
09 22.04 ЮЗ 4
{18}
20 км в посл. час ливневой дождь 9/8 1000 м
[Cb cap Ac trans Ci]
+10.0 +2.6 60 +8 +9 прохладно 1024.0 1016.5
12 22.04 ЮЗ 5-10
{12}
20 км {ливн. осадки} 10/8 1000 м
[Cb cap Ci]
+9.6 +3.2 64 +7 +8 холодно 1023.8 1016.3
15 22.04 Ю 3
{11}
20 км {ливн. осадки} 9/8 1000 м
[Cb cap Ci]
+8.8 +3.4 69 +7 +7 прохладно 1021.5 1014.0 +11.7 1
18 22.04 ЮЗ 2 10 км {ливн. осадки} 10/8 1000 м
[Cb cap Ci]
+8.6 +3.6 71 +7 +7 прохладно 1019.1 1011.6
21 22.04 С 1 10 км 10/6 1000 м
[Cb cap Ci]
+7.8 +3.7 75 +7 +7 по сезону 1016.0 1008.5
00 23.04 С 3 10 км {ливн. осадки} 10/8 1000 м
[Cb cap Ci]
+9.7 +0.7 53 +8 +8 по сезону 1011.3 1003.9
03 23.04 СВ 6-13
{13}
20 км 10/8 1000 м
[Cb cap Ci]
+10.7 +1.6 53 +8 +8 по сезону 1005.7 998.3 +7.7
06 23.04 СВ 7-17
{17}
10 км в посл. час ливневой дождь 10/6 600 м
[Cb cap Ac trans Ci fib]
+9.8 +4.7 71 +6 +7 холодно 999.8 992.5
09 23.04 СВ 4
{17}
20 км 10/5 1000 м
[Cb cap Ac trans Ci fib]
+11.8 +4.7 62 +10 +13 по сезону 997.9 990.6
12 23.04 СВ 6-10
{15}
10 км гроза, ливневой дождь 10/8 600 м
[Cb cap Ac trans Ci fib]
+11.1 +6.7 74 +8 +9 холодно 997.5 990.2
15 23.04 ЮЗ 7-14
{15}
20 км {гроза, ливн. осадки} 10/6 600 м
[Cb cap Ac As]
+9.6 +7.1 84 +6 +6 холодно 1002.4 995.0 +13.7 5
18 23.04 ЮЗ 8-16
{22}
10 км {гроза, ливн. осадки} 10/5 1000 м
[Cb cap Ac As]
+6.4 +2.8 78 +1 +1 очень
холодно
1011.1 1003.6
21 23.04 ЮЗ 6-10
{16}
4000 м слабый ливневой дождь 10/10 600 м
[Cb cap]
+6.0 +3.9 86 +1 +1 очень
холодно
1014.7 1007.1
00 24.04 ЮЗ 4
{10}
10 км {ливн. осадки} 10/8 600 м
[Cb cap Ac As]
+6.4 +3.6 82 +3 +3 холодно 1016.4 1008.8
03 24.04 ЮВ 6-13
{13}
10 км слабый ливневой дождь 10/8 600 м
[Cb cap Ac As]
+6.7 +4.0 83 +2 +2 очень
холодно
1016.3 1008.7 +5.9 4
06 24.04 ЮВ 8-13
{14}
10 км слабый ливневой дождь 10/8 600 м
[Cb cap Ac As]
+7.0 +4.7 85 +2 +2 очень
холодно
1016.9 1009.3
09 24.04 ЮЗ 6-14
{17}
4000 м слабый ливневой дождь 10/10 600 м
[Cb cap]
+7.7 +5.3 85 +3 +3 очень
холодно
1017.8 1010.3
12 24.04 ЮЗ 6-11
{16}
10 км слабый ливневой дождь 10/8 600 м
[Cb cap Ac trans]
+7.4 +4.5 82 +3 +4 очень
холодно
1019.4 1011.8
15 24.04 ЮЗ 3
{11}
20 км {ливн. осадки} 10/8 600 м
[Cb cap Ac trans Ci sp]
+8.2 +3.9 74 +6 +6 холодно 1021.1 1013.5 +10.0 11
18 24.04 ЮВ 6-12
{12}
10 км {ливн. осадки} 10/8 600 м
[Cb cap Ac trans Ci sp]
+8.1 +3.8 74 +4 +4 холодно 1022.8 1015.3
21 24.04 ЮЗ 6
{12}
10 км 9/8 600 м
[Cb cap Ci sp]
+8.3 +5.2 81 +4 +4 холодно 1023.5 1015.9
00 25.04 ЮЗ 6-10
{13}
10 км 9/8 600 м
[Cb cap Ci sp]
+8.0 +4.1 76 +4 +4 прохладно 1024.2 1016.6
03 25.04 СВ 2
{11}
20 км {ливн. осадки} 9/6 600 м
[Cb cap Ci sp]
+5.5 +1.6 76 +3 +3 холодно 1026.6 1019.0 +5.1 2
06 25.04 СВ 2 20 км в посл. час ливневой дождь 9/8 1000 м
[Cb cap Ci fib]
+6.0 +3.3 83 +4 +5 холодно 1029.4 1021.7 +4.1

 

Местоположение метеостанции Туапсе (Краснодарский край, Россия): широта 44.10 долгота 39.07 высота над уровнем моря 62 м.

В архиве по умолчанию представлена погода в Туапсе за последнюю неделю. Архивные данные за месяц целиком и за предыдущие месяцы, начиная с января 2011 года, Вы можете получить, выбрав интересующий диапазон дат из раскрывающегося списка и нажав кнопку "Ввод!".

Внимание! Время в таблицах - всемирное. Для получения местного времени необходимо прибавить поправку, которая в Туапсе равна 3 ч.

Смотрите также архив погоды в соседних городах и на ближайших метеорологических станциях:

Погода в Горном (Краснодарский край, Россия) (26 км)
Погода в Джубге (Краснодарский край, Россия) (38 км)
Погода в Горячем Ключе (Краснодарский край, Россия) (59 км)
Погода в Сочи (Краснодарский край, Россия) (81 км)
Погода в Гузерипле (Адыгея, Россия) (85 км)
Погода в Шунтуке (Адыгея, Россия) (93 км)
Погода в Геленджике (Краснодарский край, Россия) (95 км)
Погода в Кепше (Краснодарский край, Россия) (95 км)
Погода в Белореченске (Краснодарский край, Россия) (98 км)
Погода в Майкопе (Адыгея, Россия) (99 км)

Пояснения к столбцам:

Ветер - указаны скорость ветра в м/с - средняя за 10 мин, порывы в срок и между сроками (в фигурных скобках) и направление, откуда дует ветер: С - северный, СВ - северо-восточный, В - восточный, ЮВ - юго-восточный, Ю - южный, ЮЗ - юго-западный, З - западный, СЗ - северо-западный.
Видимость - горизонтальная дальность видимости в метрах или километрах. При видимости от 1 до 10 км при отсутствии осадков обычно наблюдается дымка, при ухудшении видимости до 1 км и менее - туман. В сухую погоду видимость может ухудшаться дымом, пылью или мглою.
Явления - указаны атмосферные явления, наблюдавшиеся в срок или в последний час перед сроком; фигурными скобками обозначены явления, наблюдавшиеся между сроками (за 1-3 часа до срока); квадратными скобками обозначены град или гололедные отложения с указанием их диаметра в мм.
Облачность - указаны через наклонную черту общая и нижняя облачность в баллах и высота нижней границы облаков в метрах; квадратными скобками обозначены формы облаков: Ci - перистые, Cs - перисто-слоистые, Cc - перисто-кучевые, Ac - высококучевые, As - высокослоистые, Sc - слоисто-кучевые, Ns - слоисто-дождевые, Cu - кучевые, Cb - кучево-дождевые. Подробнее классификацию облаков см. в Атласе облаков (PDF).
T - Температура воздуха - температура, измеренная на высоте 2 м над землей.
Td - Температура точки росы - температура, при понижении до которой содержащийся в воздухе водяной пар достигнет насыщения.
f - Относительная влажность воздуха - влажноcть воздуха, измеренная на высоте 2 м над землей.
Te - Эффективная температура - температура, которую ощущает одетый по сезону человек в тени. Характеристика душности погоды. При расчете учитывается влияние влажности воздуха и скорости ветра на теплоощущения человека.
Tes - Эффективная температура на солнце - температура, которую ощущает человек, с поправкой на солнечный нагрев. Характеристика знойности погоды. Зависит от высоты солнца над горизонтом, облачности и скорости ветра. Ночью, в пасмурную погоду, а также при ветре 12 м/с и более поправка равна нулю.
P - Атмосферное давление - приведенное к уровню моря атмосферное давление.
Po - Атмосферное давление - измеренное на уровне метеостанции атмосферное давление.
Tmin - Минимальная температура - минимум температуры воздуха на высоте 2 м над землей.
Tmax - Максимальная температура - максимум температуры воздуха на высоте 2 м над землей.
R - Количество осадков - Количество выпавших осадков за период времени, мм. При наведении курсора мыши на число - период времени, за который выпало указанное количество осадков.
R24 - Количество осадков - Количество выпавших осадков за 24 часа, мм.
S - Снежный покров - Высота снежного покрова, см. При наведении курсора мыши на число - состояние снежного покрова и степень покрытия местности в баллах.